Dewpoint
72 71 70 69 69 70 69 71 70 70 70 70 70 69 69 68 70 68 70 71 71 72 74 74 76 76 75 76 76 76 76 75 77 76 77 75 74 73 71 70 70 69
72 73 72 71 72 71 70 70 70 69 70 68 69 68 68 70 68 69 69 70 71 71 73 74 75 75 75 75 75 75 75 74 74 74 73 74 74 72 70 69 68 69
72 72 72 70 71 71 71 69 69 69 68 69 68 68 67 69 67 67 70 70 70 69 72 72 74 75 75 75 75 74 74 75 74 73 74 74 73 72 73 72 70 68
72 71 71 70 69 70 69 68 69 69 68 67 66 69 67 66 68 65 67 76 70 69 70 72 72 73 74 74 75 75 74 75 75 75 74 75 76 75 74 73 73 71
71 71 70 69 69 69 68 67 66 68 66 66 65 66 69 68 66 66 65 68 71 71 71 71 71 72 73 73 73 74 74 75 75 75 75 74 75 76 74 74 72 71
71 71 72 69 68 68 66 66 66 66 65 65 65 65 64 67 67 66 65 66 67 68 68 70 69 70 72 72 73 73 73 73 73 74 74 74 74 74 72 72 72 71
70 71 70 71 70 68 67 65 65 66 65 64 67 64 64 63 67 67 67 67 66 68 67 68 70 69 70 72 73 73 73 73 72 74 74 74 74 73 73 73 75 74
69 70 70 70 69 68 68 65 64 64 65 66 64 65 65 63 64 64 68 68 67 67 67 67 68 69 69 69 72 72 72 72 73 72 74 74 74 74 74 75 74 73
71 72 72 72 69 70 70 70 68 67 66 66 65 64 65 65 64 63 63 66 68 69 68 67 69 68 69 69 71 72 72 71 71 71 71 74 74 75 75 75 74 74
70 72 74 72 70 70 71 70 71 70 69 68 67 67 67 64 65 64 64 65 64 68 71 69 68 69 68 68 69 71 72 72 71 71 72 72 73 74 74 74 73 73
69 71 72 72 72 72 70 71 70 70 71 72 71 69 68 67 67 66 66 67 65 65 66 69 70 71 69 67 67 69 72 71 71 71 71 72 72 72 74 73 73 72
74 73 72 72 72 72 72 70 69 69 69 69 74 74 71 69 68 69 69 69 68 67 66 67 68 69 70 69 68 68 68 69 71 72 72 71 71 72 73 73 72 72
74 73 73 73 72 71 72 72 73 71 71 69 70 71 69 68 69 71 71 71 70 71 70 69 68 68 70 71 70 69 69 70 69 69 71 71 72 72 72 72 71 72
74 74 73 72 74 74 73 73 73 74 74 72 72 71 70 70 70 71 69 69 71 70 72 71 71 70 70 71 71 71 70 70 71 71 70 72 72 72 72 72 72 72
74 74 74 74 74 73 73 72 73 74 74 73 72 70 70 72 73 72 73 71 70 72 71 71 70 71 73 73 73 74 75 73 71 71 72 72 73 72 73 72 72 72
74 74 74 74 74 74 74 73 73 73 74 74 74 74 74 74 74 73 73 72 71 70 70 71 71 74 75 75 76 76 74 73 72 74 74 74 74 72 73 73 74 72
73 73 73 73 73 73 73 73 73 74 74 74 73 73 73 74 75 74 73 73 72 71 71 70 72 73 74 68 69 73 75 73 72 74 73 74 74 72 71 72 71 72
72 72 72 71 72 72 72 72 72 72 73 73 74 74 74 74 74 72 73 71 70 70 71 71 72 74 66 68 69 70 74 75 73 73 73 74 73 72 72 72 72 74
71 71 71 71 72 72 72 72 72 72 71 71 71 72 73 72 72 73 72 73 74 73 74 71 72 71 66 67 68 68 70 76 71 71 72 73 72 71 71 72 73 73
71 72 72 72 72 72 71 71 71 70 70 71 72 71 71 72 73 73 72 72 72 73 73 71 69 66 65 66 66 67 68 72 74 72 71 74 73 72 71 71 73 73
70 70 70 70 71 71 71 70 70 70 71 70 70 71 71 71 71 71 72 73 74 73 71 70 65 62 62 64 63 65 67 72 72 72 72 72 72 72 72 72 73 74
68 68 68 69 69 69 69 69 69 69 70 70 71 70 71 71 71 71 72 73 73 71 71 70 64 58 58 59 61 62 66 71 72 73 73 74 74 74 74 74 74 73
67 67 67 67 68 68 68 68 69 69 70 70 69 69 68 68 69 70 71 72 72 72 71 66 60 57 56 55 56 58 66 71 72 73 73 73 74 74 73 73 74 73
67 67 67 67 67 68 68 68 69 69 69 70 67 66 65 65 65 65 65 67 70 71 69 62 59 57 54 53 54 56 65 71 73 73 73 72 72 72 73 72 72 73
66 67 67 67 67 67 68 68 69 69 70 68 66 65 64 64 64 63 63 63 64 64 66 61 60 58 54 53 53 54 62 69 70 72 71 71 71 72 72 71 71 70
65 66 66 66 66 66 67 67 68 68 68 66 66 65 64 63 62 61 60 61 62 62 62 61 60 59 57 53 52 53 56 62 60 61 62 64 66 70 71 71 67 64